Wind_Speed
21 22 25 23 26 26 22 16 19 17 23 20 22 21 17 9 4 7 9 11 13 2 6 2 2 6 7 8 7 15 17 13 18 22 20 14 10 13 11 14 22 18 30 38
19 16 15 16 17 19 19 20 20 20 24 21 20 14 5 3 6 6 5 9 10 10 6 4 4 7 9 10 11 11 16 18 10 15 21 15 13 11 10 9 3 22 21 23
13 15 15 15 13 17 19 19 20 23 19 10 9 6 2 4 4 3 5 6 9 6 6 6 6 7 9 11 14 13 15 12 12 7 5 18 10 12 15 18 19 23 25 26
12 15 17 15 12 15 19 17 15 10 8 9 7 7 2 4 4 4 5 4 4 7 5 5 6 5 9 12 14 15 17 14 10 12 6 6 13 20 17 16 21 25 29 32
13 13 14 10 12 13 9 5 5 8 9 10 7 4 3 4 4 3 1 2 2 4 5 6 5 6 8 10 11 13 17 17 18 11 3 14 11 11 27 32 25 23 26 33
11 9 11 10 13 13 11 8 6 7 10 4 2 2 3 4 3 1 1 1 2 4 6 4 7 7 7 9 13 15 14 14 14 17 13 5 1 9 13 11 11 21 21 35
14 14 15 14 14 14 12 11 9 9 8 4 4 3 1 1 1 2 3 4 6 5 6 9 8 9 10 10 11 9 10 12 13 14 16 18 17 14 10 8 4 13 6 8
20 19 18 15 15 14 14 13 10 8 6 5 4 3 2 2 2 4 5 4 4 6 7 7 7 8 10 11 9 11 12 12 13 14 15 16 16 17 18 18 16 15 14 13
17 20 17 17 16 14 13 12 10 9 7 6 6 4 3 3 3 5 6 6 6 7 8 6 7 8 7 8 9 10 10 11 12 13 13 14 15 15 15 15 17 19 22 23
25 23 22 20 19 15 13 12 12 12 9 7 6 5 5 4 2 4 5 5 6 6 6 6 6 6 7 9 10 12 13 14 15 16 17 18 18 18 19 19 20 22 22 21
23 23 24 24 23 21 15 15 15 13 12 11 9 8 6 4 2 2 1 3 4 6 7 7 8 8 9 8 9 12 14 15 16 18 19 21 23 24 24 25 25 26 27 27
22 24 21 21 23 22 18 17 18 16 15 14 12 9 7 5 4 3 3 5 6 7 9 9 8 9 10 11 12 12 13 16 19 23 25 27 28 26 26 27 30 30 31 32
21 22 21 20 21 21 20 21 21 19 17 16 13 10 9 7 6 7 6 6 8 10 12 11 10 12 13 15 16 18 19 20 21 21 24 27 29 30 33 33 32 34 36 36
20 20 22 19 23 22 22 23 21 19 19 17 14 12 9 9 10 9 8 11 12 12 12 13 14 14 16 17 19 21 23 25 26 27 30 32 33 36 39 41 42 43 44 46
22 20 22 20 25 24 24 21 21 22 21 18 15 14 12 11 11 10 12 13 13 13 13 14 16 18 19 20 22 24 25 27 29 33 36 39 42 44 46 48 49 50 52 55
24 18 22 24 27 29 26 21 22 21 21 19 17 14 11 10 12 12 11 11 12 13 15 17 20 23 24 25 27 29 32 33 35 38 41 44 47 49 52 54 56 56 59 62
24 21 19 26 26 29 26 25 25 22 21 19 16 12 12 13 12 12 12 13 15 17 19 22 24 26 29 30 32 35 36 38 40 43 46 49 52 54 56 59 62 65 68 70
21 20 16 22 28 28 25 24 24 23 23 20 16 15 15 13 13 14 15 17 18 19 22 25 27 28 30 33 35 38 40 42 45 47 49 53 55 58 61 64 68 72 75 78
21 16 15 17 23 25 25 24 23 23 23 22 19 18 17 17 18 19 19 20 21 22 25 28 30 32 34 36 39 41 44 47 49 51 53 56 58 62 66 70 73 76 79 82
22 16 15 19 20 24 24 24 25 24 23 23 22 20 20 21 21 21 21 22 23 25 27 30 32 35 38 41 43 45 47 49 51 54 56 59 63 68 72 76 79 82 84 87
19 16 16 23 19 22 22 24 24 24 24 24 23 22 21 23 24 23 23 25 25 27 30 32 34 37 39 42 45 48 50 52 55 58 61 64 68 73 77 80 83 86 88 91
16 15 15 20 20 20 19 21 21 21 23 23 23 23 24 25 25 26 25 27 28 29 31 34 37 41 44 48 51 53 55 57 60 63 66 70 73 77 81 85 87 89 90 90
15 14 14 15 17 18 17 17 19 20 21 22 25 26 26 26 27 26 28 28 30 33 35 39 42 45 49 53 55 57 59 61 64 68 71 74 78 81 85 86 88 90 87 79
16 17 18 17 17 17 17 19 20 22 23 25 27 27 27 27 27 26 29 32 35 38 40 43 47 50 53 55 57 59 62 65 68 72 74 77 81 84 85 87 88 84 74 68
11 13 15 17 18 19 20 21 22 23 24 27 26 25 25 27 27 29 32 36 40 43 45 48 51 54 56 58 60 63 65 68 71 74 77 80 82 84 86 86 79 70 66 65
7 7 9 13 17 19 21 22 23 24 24 23 23 25 26 28 30 34 38 42 44 46 49 51 53 56 58 61 63 65 68 70 73 76 79 81 83 85 83 75 68 64 64 64
12 11 11 12 11 13 15 16 17 18 20 22 25 26 28 32 35 39 41 44 46 50 52 54 56 57 60 62 64 66 69 71 74 77 79 81 82 79 71 65 63 63 64 63
Wind_Direction
271 265 270 266 270 274 270 266 271 266 270 267 269 282 277 270 309 301 342 357 342 231 163 154 277 339 338 8 24 27 15 344 267 265 325 293 256 245 236 217 216 212 213 218
261 259 259 266 271 270 263 268 276 269 263 278 279 271 222 278 305 313 3 355 357 23 40 358 336 337 346 355 345 16 35 1 355 241 279 300 266 236 258 218 62 218 218 209
237 253 268 278 263 259 277 289 273 268 274 268 258 216 229 293 301 325 6 346 344 350 355 4 348 342 358 4 359 0 17 32 48 56 347 253 266 230 205 208 208 211 218 226
237 277 283 282 273 280 286 281 271 247 255 246 247 210 270 256 284 312 333 345 348 345 1 5 1 346 352 358 6 17 15 7 25 49 50 254 235 244 215 221 228 228 226 225
263 279 274 286 281 289 304 296 244 237 247 263 205 185 203 234 245 246 282 321 330 356 7 10 3 15 359 352 1 6 8 4 2 9 347 70 91 220 237 254 239 228 244 241
266 256 259 288 278 284 302 289 278 257 253 193 224 253 212 233 222 168 59 33 50 36 17 3 18 21 24 23 22 15 3 1 359 360 20 31 47 122 136 133 194 221 220 255
251 260 249 252 271 275 294 290 279 282 231 195 220 246 253 203 139 72 65 48 48 39 41 41 31 30 42 43 40 18 14 11 17 16 10 357 0 4 357 356 228 213 222 239
254 264 262 256 273 276 279 289 268 253 219 222 209 214 219 216 134 99 88 72 72 67 61 58 55 44 48 47 26 27 24 26 28 23 17 21 12 357 345 343 340 327 316 296
253 261 262 252 257 257 265 265 251 234 228 221 202 193 206 207 132 92 75 78 73 74 65 50 48 43 33 18 2 5 6 2 5 2 1 359 356 356 355 347 340 334 326 319
243 252 257 249 247 249 257 247 242 223 217 208 212 195 207 203 134 85 69 65 48 42 28 10 4 4 357 349 351 352 356 353 351 345 342 344 342 337 333 328 324 321 317 312
247 250 251 247 252 238 250 236 221 216 216 212 210 205 200 191 165 112 21 357 350 335 324 325 327 328 328 331 330 333 338 342 344 343 340 336 331 328 325 321 318 314 309 306
249 246 256 250 234 228 239 232 216 215 218 216 204 201 208 212 223 240 280 307 305 301 298 301 300 302 305 309 316 318 324 327 327 328 328 327 325 321 317 315 313 310 307 305
249 248 244 229 226 224 222 219 213 214 217 210 207 210 221 237 258 272 268 276 288 285 281 284 290 297 301 309 315 317 317 317 319 320 324 325 324 324 325 321 316 313 309 306
245 247 239 230 218 228 224 215 217 215 213 211 211 219 226 243 256 264 283 287 281 277 275 279 281 284 291 301 307 309 308 309 310 312 315 317 318 320 319 318 317 317 315 314
241 242 233 238 221 218 213 218 218 215 214 213 220 224 230 244 258 268 275 271 272 273 273 277 280 279 285 292 301 305 308 307 306 311 314 315 317 317 318 318 317 315 314 314
237 242 227 234 220 214 216 226 216 216 219 214 218 221 232 253 265 261 261 272 277 275 277 278 279 279 282 289 295 300 301 303 307 311 312 313 315 316 317 317 317 315 313 313
237 245 235 225 216 208 213 224 217 218 222 216 214 225 241 246 246 257 263 264 268 274 280 281 283 284 285 289 291 296 299 303 307 308 311 313 314 314 314 314 315 315 315 314
238 246 246 225 218 215 218 219 219 219 222 219 218 225 233 239 244 251 261 267 272 278 282 284 287 288 289 290 292 296 301 304 305 306 309 312 314 315 315 315 315 315 315 314
232 249 248 219 220 216 217 219 219 219 222 225 222 227 235 244 250 255 260 267 276 281 284 285 287 289 292 294 298 301 302 303 305 307 310 312 313 315 314 314 315 315 314 313
231 244 235 205 210 217 215 215 217 222 225 228 230 233 240 247 251 255 261 268 274 281 286 289 293 296 299 301 303 303 303 304 305 307 310 312 313 314 314 315 315 315 314 314
225 231 229 218 209 217 221 222 220 222 226 232 237 241 247 253 257 261 266 272 277 282 288 293 297 300 302 304 306 307 307 306 307 309 311 312 313 314 314 315 315 315 315 315
226 218 214 220 226 224 224 223 223 227 231 236 241 245 249 254 258 263 268 274 281 287 292 295 298 300 303 305 306 308 309 308 309 310 311 312 313 314 315 315 315 316 316 316
225 229 224 224 223 229 234 234 239 239 242 246 248 248 250 255 262 268 275 279 286 290 293 296 298 300 303 305 306 307 308 309 310 310 312 313 314 315 315 316 317 317 317 316
223 227 237 239 241 243 246 244 245 247 249 251 251 250 255 261 265 273 280 286 288 292 295 297 299 303 305 306 307 308 309 310 311 312 313 314 315 316 317 318 318 318 316 314
230 233 238 243 246 246 245 244 245 248 255 255 251 253 259 265 274 282 285 289 291 294 298 300 302 304 305 307 308 309 310 311 313 313 314 316 317 318 319 319 319 317 316 316
239 247 260 257 255 251 249 251 251 251 247 247 254 261 267 276 282 286 287 290 294 298 300 301 302 304 306 307 309 311 312 313 313 314 316 317 318 319 320 319 318 318 318 318
253 254 255 259 264 265 259 255 256 257 259 262 267 274 282 285 287 290 292 295 297 298 299 301 302 305 306 309 310 312 313 313 314 316 318 319 320 320 320 319 319 320 320 320
Height
5578 5577 5574 5574 5575 5574 5573 5573 5572 5573 5569 5571 5570 5570 5568 5567 5565 5565 5563 5560 5558 5555 5553 5553 5552 5550 5548 5547 5546 5543 5541 5537 5532 5534 5534 5532 5532 5533 5536 5537 5540 5550 5558 5566
5572 5571 5570 5570 5570 5569 5568 5569 5568 5567 5565 5567 5566 5565 5564 5563 5563 5562 5561 5560 5558 5555 5553 5554 5552 5551 5549 5546 5545 5543 5540 5536 5535 5534 5535 5535 5535 5535 5537 5541 5537 5553 5557 5563
5568 5566 5566 5567 5567 5565 5564 5563 5562 5562 5562 5562 5562 5562 5562 5561 5561 5561 5560 5559 5558 5556 5555 5554 5553 5551 5550 5548 5546 5544 5542 5540 5537 5535 5533 5534 5536 5538 5540 5543 5547 5552 5556 5561
5563 5562 5561 5562 5562 5561 5560 5558 5556 5557 5559 5559 5559 5560 5560 5560 5560 5560 5559 5558 5557 5556 5555 5554 5553 5551 5549 5548 5546 5545 5543 5540 5538 5537 5535 5535 5535 5538 5541 5543 5549 5552 5555 5559
5558 5559 5559 5559 5558 5558 5557 5556 5555 5556 5557 5557 5557 5558 5559 5559 5560 5559 5558 5558 5557 5556 5555 5554 5553 5552 5550 5549 5547 5545 5543 5541 5540 5538 5538 5537 5536 5537 5541 5542 5544 5548 5551 5555
5556 5556 5555 5556 5556 5556 5555 5555 5554 5555 5555 5555 5556 5557 5559 5559 5559 5559 5558 5558 5557 5556 5555 5555 5553 5552 5551 5550 5547 5547 5546 5543 5541 5539 5539 5537 5537 5537 5537 5536 5538 5543 5542 5546
5552 5552 5552 5553 5554 5553 5554 5556 5553 5553 5554 5555 5556 5557 5557 5558 5558 5558 5557 5558 5557 5556 5555 5554 5554 5553 5551 5551 5551 5550 5547 5545 5543 5541 5539 5538 5536 5535 5535 5535 5535 5535 5537 5539
5548 5548 5550 5551 5551 5552 5552 5551 5551 5552 5553 5555 5555 5556 5556 5557 5557 5558 5558 5559 5558 5557 5557 5557 5556 5556 5554 5553 5553 5550 5549 5547 5545 5544 5542 5541 5539 5538 5536 5535 5535 5535 5534 5534
5545 5544 5545 5547 5548 5549 5549 5549 5550 5551 5552 5553 5554 5555 5556 5557 5558 5558 5559 5559 5559 5559 5559 5559 5557 5556 5555 5555 5554 5553 5551 5549 5548 5547 5545 5543 5542 5540 5539 5538 5536 5534 5532 5531
5539 5541 5542 5542 5544 5546 5546 5547 5548 5550 5551 5552 5553 5554 5556 5557 5557 5557 5559 5559 5559 5559 5560 5559 5559 5557 5556 5556 5555 5553 5551 5550 5549 5547 5546 5544 5542 5541 5539 5537 5535 5533 5532 5531
5533 5535 5536 5538 5539 5541 5543 5544 5546 5547 5549 5551 5552 5553 5555 5556 5557 5557 5558 5558 5559 5560 5560 5559 5559 5557 5557 5556 5555 5553 5551 5550 5548 5546 5544 5543 5540 5539 5537 5535 5533 5531 5529 5526
5527 5528 5530 5531 5533 5536 5538 5540 5543 5545 5547 5549 5550 5552 5553 5554 5555 5556 5556 5557 5558 5558 5558 5557 5556 5556 5555 5554 5553 5551 5549 5547 5545 5542 5540 5537 5535 5534 5532 5530 5526 5524 5521 5519
5521 5522 5525 5527 5529 5531 5534 5536 5539 5542 5544 5546 5548 5549 5551 5552 5553 5553 5554 5554 5555 5555 5555 5555 5554 5553 5552 5551 5549 5547 5545 5543 5542 5540 5537 5534 5531 5527 5524 5521 5519 5515 5511 5509
5516 5516 5519 5521 5525 5527 5529 5533 5536 5538 5541 5543 5545 5547 5548 5549 5550 5551 5551 5552 5552 5552 5552 5552 5551 5550 5549 5547 5546 5543 5541 5538 5536 5533 5531 5528 5525 5522 5517 5514 5509 5505 5501 5497
5510 5511 5514 5516 5519 5522 5525 5528 5531 5535 5537 5540 5542 5543 5544 5545 5546 5547 5548 5549 5549 5549 5548 5548 5546 5545 5544 5543 5541 5538 5536 5533 5530 5525 5521 5518 5513 5510 5506 5502 5497 5492 5486 5481
5505 5507 5509 5511 5514 5517 5521 5524 5527 5531 5534 5536 5538 5539 5540 5541 5543 5544 5544 5544 5544 5544 5544 5543 5542 5541 5539 5537 5535 5532 5529 5526 5522 5518 5514 5510 5505 5500 5494 5488 5483 5477 5472 5465
5500 5502 5504 5507 5509 5512 5517 5521 5524 5527 5530 5531 5533 5535 5537 5538 5539 5539 5540 5540 5540 5540 5539 5538 5537 5535 5533 5530 5527 5524 5521 5517 5513 5508 5503 5498 5493 5486 5480 5474 5467 5461 5454 5446
5495 5497 5499 5502 5505 5509 5513 5516 5519 5522 5525 5527 5529 5531 5532 5534 5534 5535 5536 5536 5536 5534 5533 5532 5530 5528 5525 5522 5519 5515 5511 5507 5503 5498 5492 5486 5480 5473 5465 5458 5450 5442 5434 5425
5491 5493 5496 5498 5501 5505 5509 5512 5515 5518 5521 5523 5525 5527 5528 5529 5530 5530 5530 5531 5530 5529 5527 5525 5522 5520 5517 5513 5510 5506 5501 5496 5491 5485 5479 5473 5466 5459 5451 5444 5435 5426 5417 5407
5488 5490 5493 5496 5499 5502 5505 5508 5511 5514 5517 5519 5521 5522 5524 5525 5525 5525 5524 5524 5523 5522 5519 5517 5514 5511 5508 5504 5500 5495 5490 5484 5479 5472 5465 5458 5451 5443 5434 5425 5415 5405 5395 5384
5485 5487 5490 5493 5496 5498 5501 5504 5507 5510 5512 5514 5516 5517 5518 5519 5520 5519 5518 5517 5516 5514 5512 5509 5505 5502 5498 5493 5488 5483 5477 5471 5465 5458 5450 5442 5434 5425 5415 5405 5394 5383 5371 5358
5482 5484 5487 5490 5493 5496 5498 5501 5503 5505 5507 5509 5510 5511 5513 5513 5513 5513 5512 5510 5508 5506 5503 5499 5496 5492 5487 5482 5476 5470 5463 5457 5449 5442 5434 5425 5415 5405 5394 5383 5371 5359 5347 5334
5480 5482 5484 5487 5490 5492 5494 5496 5499 5500 5502 5503 5504 5505 5506 5506 5506 5505 5504 5502 5500 5497 5494 5489 5485 5481 5475 5469 5463 5456 5449 5441 5433 5425 5416 5406 5396 5385 5374 5361 5349 5335 5322 5309
5478 5479 5481 5483 5485 5487 5489 5491 5493 5494 5496 5498 5498 5499 5500 5499 5499 5497 5496 5493 5491 5487 5483 5479 5473 5468 5462 5455 5448 5441 5434 5425 5417 5408 5398 5388 5376 5365 5352 5339 5326 5312 5300 5289
5475 5477 5479 5480 5482 5483 5485 5487 5488 5490 5491 5491 5492 5492 5492 5492 5491 5488 5487 5484 5480 5476 5472 5466 5460 5453 5447 5441 5433 5426 5418 5409 5400 5390 5379 5368 5356 5344 5331 5317 5304 5292 5281 5271
5474 5475 5476 5477 5478 5479 5480 5481 5482 5483 5484 5485 5486 5485 5485 5483 5482 5480 5476 5473 5469 5463 5458 5453 5447 5441 5433 5426 5418 5410 5402 5392 5382 5371 5361 5349 5336 5323 5310 5297 5286 5275 5264 5254
5472 5472 5473 5474 5475 5476 5476 5477 5478 5479 5480 5480 5479 5478 5476 5474 5472 5469 5466 5461 5456 5451 5445 5439 5433 5427 5419 5412 5403 5395 5385 5375 5365 5354 5342 5330 5317 5304 5291 5280 5270 5259 5248 5238